Weather History for Dayton, OH

Change the Weather History Date:

Thursday, November 29, 2012

  Actual Average Record
Temperature  
Mean Temperature 36 °F 37 °F  
Max Temperature 46 °F 44 °F 70 °F (1927)
Min Temperature 26 °F 30 °F 2 °F (1958)
Degree Days  
Heating Degree Days 29 28  
Month to date heating degree days 695 635  
Since 1 July heating degree days 1195 1082  
Cooling Degree Days 0 0  
Month to date cooling degree days 0 0  
Year to date cooling degree days 1264 891  
Moisture  
Dew Point 25 °F    
Average Humidity 64    
Maximum Humidity 78    
Minimum Humidity 49    
Precipitation  
Precipitation 0.00 in 0.11 in 0.65 in (2011)
Month to date precipitation 0.79 3.28  
Year to date precipitation 28.82 37.82  
Snow  
Snow 0.00 in 0.10 in 3.20 in (1952)
Month to date snowfall 0.2 0.6  
Since 1 July snowfall 0.9 1.0  
Since 1 September snowfall 0.9 1.0  
Snow Depth 0.00 in    
Sea Level Pressure  
Sea Level Pressure 30.34 in    
Wind  
Wind Speed 9 mph (South)    
Max Wind Speed 16 mph    
Max Gust Speed 21 mph    
Visibility 8 miles    
Events      
T = Trace of Precipitation, MM = Missing Value Source: NWS Daily Summary

Daily Weather History Graph

Daily Weather History Graph

Search for Another Location

Airport:

Trip Planner

Search our weather history database for the weather conditions in past years. The results will help you decide how hot, cold, wet, or windy it might be!

Date:

Astronomy

Nov. 29, 2012 Rise Set
Actual Time 7:37 AM EST 5:12 PM EST
Civil Twilight 7:07 AM EST 5:42 PM EST
Nautical Twilight 6:34 AM EST 6:16 PM EST
Astronomical Twilight 6:01 AM EST 6:48 PM EST
Moon 6:14 PM EST (11/29) 8:23 AM EST (11/29)
Length of Visible Light 10h 34m
Length of Day
9h 35m
Full, 99% of the Moon is Illuminated
Nov 29
Full
Dec 6
Last Quarter
Dec 13
New
Dec 20
First Quarter
Dec 28
Full

Hourly Weather History & Observations

Time (EST) Temp. Windchill Dew Point Humidity Pressure Visibility Wind Dir Wind Speed Gust Speed Precip Events Conditions
12:56 AM 30.0 °F 24.1 °F 23.0 °F 75% 30.40 in 8.0 mi SSW 5.8 mph - N/A   Clear
1:56 AM 28.9 °F 21.9 °F 21.9 °F 75% 30.40 in 8.0 mi SSW 6.9 mph - N/A   Clear
2:56 AM 30.0 °F 22.4 °F 23.0 °F 75% 30.40 in 8.0 mi SSW 8.1 mph - N/A   Clear
3:56 AM 30.0 °F 23.2 °F 23.0 °F 75% 30.40 in 8.0 mi SSW 6.9 mph - N/A   Clear
4:56 AM 28.0 °F 21.7 °F 21.9 °F 78% 30.40 in 7.0 mi South 5.8 mph - N/A   Clear
5:56 AM 28.9 °F 21.9 °F 23.0 °F 78% 30.40 in 7.0 mi SSW 6.9 mph - N/A   Partly Cloudy
6:56 AM 28.0 °F 20.8 °F 21.9 °F 78% 30.40 in 7.0 mi South 6.9 mph - N/A   Scattered Clouds
7:56 AM 28.9 °F 21.9 °F 23.0 °F 78% 30.40 in 5.0 mi SSW 6.9 mph - N/A   Haze
8:56 AM 30.9 °F 22.8 °F 24.1 °F 76% 30.39 in 6.0 mi SSW 9.2 mph - N/A   Haze
9:56 AM 36.0 °F 29.6 °F 26.1 °F 67% 30.41 in 7.0 mi SW 8.1 mph - N/A   Scattered Clouds
11:56 AM 43.0 °F 35.7 °F 27.0 °F 53% 30.37 in 10.0 mi SSW 15.0 mph - N/A   Partly Cloudy
12:56 PM 44.1 °F 37.7 °F 27.0 °F 51% 30.34 in 10.0 mi SSW 12.7 mph - N/A   Partly Cloudy
1:56 PM 45.0 °F 39.3 °F 27.0 °F 49% 30.32 in 10.0 mi SSW 11.5 mph - N/A   Partly Cloudy
2:56 PM 46.0 °F 40.2 °F 28.0 °F 50% 30.28 in 9.0 mi South 12.7 mph - N/A   Partly Cloudy
3:56 PM 45.0 °F 39.3 °F 27.0 °F 49% 30.27 in 9.0 mi South 11.5 mph - N/A   Scattered Clouds
4:56 PM 43.0 °F 38.2 °F 27.0 °F 53% 30.27 in 10.0 mi South 8.1 mph - N/A   Scattered Clouds
5:56 PM 41.0 °F 38.0 °F 27.0 °F 57% 30.29 in 10.0 mi South 4.6 mph - N/A   Scattered Clouds
6:56 PM 39.0 °F 34.8 °F 27.0 °F 62% 30.28 in 10.0 mi South 5.8 mph - N/A   Scattered Clouds
7:56 PM 39.0 °F 33.4 °F 27.0 °F 62% 30.27 in 10.0 mi South 8.1 mph - N/A   Scattered Clouds
8:56 PM 39.0 °F 33.4 °F 27.0 °F 62% 30.27 in 10.0 mi South 8.1 mph - N/A   Scattered Clouds
9:56 PM 39.9 °F 35.1 °F 28.0 °F 63% 30.26 in 10.0 mi South 6.9 mph - N/A   Scattered Clouds
10:56 PM 36.0 °F 31.1 °F 27.0 °F 70% 30.26 in 10.0 mi SSE 5.8 mph - N/A   Scattered Clouds
11:56 PM 35.1 °F 30.1 °F 27.0 °F 72% 30.26 in 9.0 mi SE 5.8 mph - N/A   Overcast